Radiation Dose at Monitoring Post of Fukushima Daini Nuclear Power Station
Date,Time,MP-1(microSv/h),MP-2(microSv/h),MP-3(microSv/h),MP-4(microSv/h),MP-5(microSv/h),MP-6(microSv/h),MP-7(microSv/h),Wind Direction,Wind Velocity(m/s),Rain
2021/01/28,00:00,0.178,0.160,0.255,0.242,0.238,0.141,0.086,north-northwest,7.4,No
2021/01/28,00:10,0.179,0.160,0.256,0.240,0.239,0.140,0.085,north-northwest,5.9,No
2021/01/28,00:20,0.179,0.159,0.255,0.242,0.238,0.142,0.085,north-northwest,5.8,No
2021/01/28,00:30,0.179,0.160,0.256,0.244,0.238,0.142,0.085,north-northwest,5.9,No
2021/01/28,00:40,0.178,0.160,0.256,0.242,0.239,0.141,0.086,north-northwest,6.3,No
2021/01/28,00:50,0.178,0.160,0.256,0.242,0.238,0.141,0.085,north-northwest,7.3,No
2021/01/28,01:00,0.177,0.160,0.255,0.241,0.238,0.141,0.086,north-northwest,7.9,No
2021/01/28,01:10,0.178,0.161,0.255,0.242,0.238,0.141,0.086,north-northwest,8.1,No
2021/01/28,01:20,0.179,0.161,0.255,0.242,0.239,0.141,0.085,north-northwest,8.4,No
2021/01/28,01:30,0.179,0.159,0.255,0.242,0.238,0.141,0.086,north-northwest,9.6,No
2021/01/28,01:40,0.179,0.160,0.255,0.242,0.239,0.141,0.086,north-northwest,8.4,No
2021/01/28,01:50,0.179,0.160,0.255,0.242,0.238,0.141,0.086,north-northwest,7.5,No
2021/01/28,02:00,0.178,0.159,0.257,0.243,0.237,0.141,0.085,north-northwest,6.1,No
2021/01/28,02:10,0.178,0.160,0.256,0.241,0.238,0.141,0.086,north-northwest,8.1,No
2021/01/28,02:20,0.178,0.160,0.255,0.242,0.239,0.142,0.085,north-northwest,7.3,No
2021/01/28,02:30,0.179,0.160,0.255,0.242,0.238,0.142,0.086,north-northwest,8.1,No
2021/01/28,02:40,0.180,0.161,0.256,0.243,0.239,0.141,0.086,north-northwest,9.2,No
2021/01/28,02:50,0.178,0.160,0.255,0.242,0.239,0.141,0.086,north-northwest,8.7,No
2021/01/28,03:00,0.179,0.160,0.256,0.242,0.239,0.142,0.086,north-northwest,7.6,No
2021/01/28,03:10,0.179,0.160,0.256,0.242,0.239,0.141,0.085,northwest,9.2,No
2021/01/28,03:20,0.179,0.160,0.255,0.241,0.238,0.141,0.086,northwest,9.5,No
2021/01/28,03:30,0.178,0.160,0.254,0.242,0.238,0.140,0.086,north-northwest,9.0,No
2021/01/28,03:40,0.179,0.160,0.256,0.241,0.238,0.141,0.086,northwest,10.3,No
2021/01/28,03:50,0.179,0.160,0.256,0.243,0.239,0.141,0.086,north-northwest,9.0,No
2021/01/28,04:00,0.179,0.160,0.257,0.242,0.239,0.141,0.085,north-northwest,8.2,No
2021/01/28,04:10,0.178,0.159,0.256,0.243,0.238,0.141,0.085,north-northwest,6.0,No
2021/01/28,04:20,0.179,0.160,0.255,0.242,0.239,0.141,0.086,north-northwest,5.9,No
2021/01/28,04:30,0.179,0.161,0.256,0.243,0.239,0.141,0.086,north-northwest,6.0,No
2021/01/28,04:40,0.179,0.160,0.257,0.242,0.238,0.141,0.086,north-northwest,6.7,No
2021/01/28,04:50,0.178,0.159,0.257,0.242,0.239,0.142,0.086,north-northwest,6.4,No
2021/01/28,05:00,0.179,0.159,0.256,0.242,0.238,0.141,0.085,north,6.7,No
2021/01/28,05:10,0.178,0.161,0.256,0.243,0.238,0.141,0.086,north,7.4,No
2021/01/28,05:20,0.178,0.160,0.255,0.242,0.239,0.142,0.086,north,6.8,No
2021/01/28,05:30,0.178,0.159,0.255,0.242,0.240,0.140,0.085,north,6.3,No
2021/01/28,05:40,0.178,0.160,0.256,0.242,0.238,0.140,0.086,north-northwest,6.1,No
2021/01/28,05:50,0.179,0.160,0.256,0.242,0.239,0.141,0.086,north-northwest,7.0,No
2021/01/28,06:00,0.179,0.160,0.256,0.242,0.238,0.141,0.086,north-northwest,7.0,No
2021/01/28,06:10,0.178,0.161,0.256,0.243,0.240,0.142,0.086,north-northwest,7.3,No
2021/01/28,06:20,0.178,0.159,0.255,0.242,0.239,0.141,0.087,north-northwest,8.1,No
2021/01/28,06:30,0.179,0.160,0.256,0.241,0.239,0.141,0.086,north-northwest,8.2,No
2021/01/28,06:40,0.178,0.162,0.255,0.243,0.238,0.141,0.085,north-northwest,8.1,No
2021/01/28,06:50,0.179,0.160,0.255,0.242,0.239,0.141,0.086,north-northwest,8.4,No
2021/01/28,07:00,0.178,0.160,0.257,0.242,0.239,0.142,0.085,north-northwest,8.7,No
2021/01/28,07:10,0.178,0.160,0.255,0.242,0.239,0.141,0.085,north-northwest,7.6,No
2021/01/28,07:20,0.179,0.160,0.255,0.242,0.238,0.141,0.086,north-northwest,7.4,No
2021/01/28,07:30,0.179,0.160,0.256,0.241,0.238,0.141,0.086,northwest,7.4,No
2021/01/28,07:40,0.179,0.161,0.254,0.241,0.240,0.141,0.085,northwest,7.9,No
2021/01/28,07:50,0.179,0.161,0.255,0.241,0.237,0.141,0.085,northwest,7.3,No
2021/01/28,08:00,0.178,0.159,0.256,0.242,0.238,0.141,0.085,north-northwest,7.3,No
2021/01/28,08:10,0.178,0.161,0.256,0.241,0.238,0.141,0.085,northwest,7.5,No
2021/01/28,08:20,0.179,0.160,0.256,0.240,0.238,0.141,0.086,north-northwest,7.1,No
2021/01/28,08:30,0.178,0.160,0.256,0.241,0.238,0.140,0.085,north-northwest,7.3,No
2021/01/28,08:40,0.179,0.159,0.256,0.241,0.238,0.141,0.085,north-northwest,7.3,No
2021/01/28,08:50,0.177,0.160,0.255,0.241,0.238,0.140,0.085,north-northwest,7.3,No
2021/01/28,09:00,0.179,0.160,0.255,0.241,0.238,0.140,0.085,north-northwest,7.3,No
2021/01/28,09:10,0.178,0.160,0.255,0.241,0.239,0.141,0.085,north-northwest,9.0,No
2021/01/28,09:20,0.178,0.160,0.256,0.242,0.238,0.140,0.085,north,6.1,No
2021/01/28,09:30,0.178,0.160,0.254,0.240,0.238,0.141,0.085,north,7.0,No
2021/01/28,09:40,0.179,0.159,0.255,0.240,0.239,0.141,0.085,north,6.6,No
2021/01/28,09:50,0.178,0.158,0.255,0.242,0.239,0.141,0.085,north,7.0,No
2021/01/28,10:00,0.178,0.159,0.254,0.241,0.237,0.140,0.084,north,8.8,No
2021/01/28,10:10,0.178,0.161,0.255,0.240,0.238,0.141,0.084,north,7.5,No
2021/01/28,10:20,0.177,0.159,0.254,0.241,0.239,0.140,0.084,north,7.0,No
2021/01/28,10:30,0.178,0.159,0.255,0.241,0.238,0.140,0.085,north,7.9,No
2021/01/28,10:40,0.178,0.160,0.256,0.241,0.239,0.141,0.085,north,6.8,No
2021/01/28,10:50,0.178,0.159,0.255,0.241,0.238,0.141,0.085,north,7.3,No
2021/01/28,11:00,0.178,0.159,0.254,0.240,0.237,0.140,0.085,north,6.4,No
2021/01/28,11:10,0.179,0.159,0.255,0.240,0.239,0.140,0.085,north,8.4,No
2021/01/28,11:20,0.178,0.160,0.256,0.241,0.237,0.141,0.085,north,8.4,No
2021/01/28,11:30,0.177,0.159,0.256,0.242,0.239,0.141,0.085,north,5.9,No
2021/01/28,11:40,0.178,0.160,0.255,0.242,0.241,0.140,0.085,north,7.0,No
2021/01/28,11:50,0.178,0.160,0.256,0.241,0.239,0.140,0.085,north,7.3,No
2021/01/28,12:00,0.179,0.160,0.256,0.242,0.239,0.141,0.085,north,6.0,No
2021/01/28,12:10,0.178,0.160,0.256,0.242,0.240,0.141,0.085,north-northwest,7.0,No
2021/01/28,12:20,0.179,0.159,0.256,0.242,0.239,0.141,0.085,north,7.4,No
2021/01/28,12:30,0.178,0.159,0.256,0.241,0.238,0.140,0.084,north,7.0,No
2021/01/28,12:40,0.178,0.159,0.256,0.243,0.239,0.140,0.086,north,4.4,No
2021/01/28,12:50,0.178,0.160,0.256,0.242,0.239,0.141,0.085,north-northwest,5.4,No
2021/01/28,13:00,0.178,0.161,0.255,0.242,0.239,0.141,0.085,north-northwest,6.1,No
2021/01/28,13:10,0.179,0.159,0.256,0.242,0.238,0.142,0.084,north-northwest,8.4,No
2021/01/28,13:20,0.178,0.159,0.255,0.242,0.239,0.140,0.085,north-northwest,7.1,No
2021/01/28,13:30,0.178,0.160,0.256,0.241,0.239,0.141,0.084,northwest,5.8,No
2021/01/28,13:40,0.178,0.160,0.256,0.242,0.238,0.141,0.085,northwest,6.8,No
2021/01/28,13:50,0.179,0.159,0.255,0.241,0.238,0.142,0.085,northwest,6.1,No
2021/01/28,14:00,0.178,0.160,0.255,0.242,0.238,0.140,0.084,northwest,4.6,No
2021/01/28,14:10,0.179,0.159,0.257,0.242,0.238,0.141,0.086,north-northwest,4.5,No
2021/01/28,14:20,0.178,0.160,0.257,0.242,0.238,0.141,0.085,north-northwest,2.9,No
2021/01/28,14:30,0.179,0.160,0.257,0.241,0.239,0.141,0.086,north-northwest,2.6,No
2021/01/28,14:40,0.178,0.160,0.254,0.242,0.238,0.140,0.085,north-northwest,3.8,No
2021/01/28,14:50,0.179,0.160,0.255,0.242,0.239,0.142,0.085,north,3.5,No
2021/01/28,15:00,0.179,0.161,0.256,0.242,0.239,0.142,0.086,north-northwest,5.2,Yes
2021/01/28,15:10,0.180,0.161,0.257,0.243,0.241,0.142,0.087,northwest,5.8,Yes
2021/01/28,15:20,0.182,0.163,0.259,0.246,0.244,0.145,0.089,northwest,7.1,Yes
2021/01/28,15:30,0.183,0.165,0.260,0.248,0.244,0.147,0.090,northwest,5.5,Yes
2021/01/28,15:40,0.183,0.166,0.260,0.247,0.244,0.147,0.090,northwest,5.7,Yes
2021/01/28,15:50,0.185,0.165,0.260,0.247,0.244,0.147,0.091,northwest,7.0,Yes
2021/01/28,16:00,0.183,0.164,0.261,0.246,0.242,0.146,0.090,north-northwest,6.6,Yes
2021/01/28,16:10,0.181,0.164,0.259,0.246,0.241,0.145,0.089,north-northwest,5.8,Yes
2021/01/28,16:20,0.182,0.163,0.259,0.245,0.242,0.146,0.089,north-northwest,6.6,No
2021/01/28,16:30,0.180,0.162,0.257,0.245,0.242,0.144,0.088,northwest,6.2,No
2021/01/28,16:40,0.182,0.162,0.258,0.244,0.240,0.143,0.087,northwest,6.8,No
2021/01/28,16:50,0.180,0.162,0.258,0.245,0.241,0.143,0.087,northwest,7.4,No
2021/01/28,17:00,0.180,0.161,0.257,0.244,0.240,0.143,0.087,northwest,8.1,No
2021/01/28,17:10,0.179,0.160,0.258,0.243,0.241,0.142,0.086,northwest,7.9,No
2021/01/28,17:20,0.179,0.160,0.256,0.243,0.240,0.142,0.086,northwest,8.1,No
2021/01/28,17:30,0.179,0.161,0.257,0.243,0.240,0.141,0.086,northwest,6.2,Yes
2021/01/28,17:40,0.179,0.160,0.256,0.243,0.239,0.142,0.086,northwest,6.5,No
2021/01/28,17:50,0.179,0.160,0.257,0.243,0.239,0.141,0.087,northwest,6.8,No
2021/01/28,18:00,0.179,0.161,0.258,0.242,0.239,0.141,0.086,northwest,7.0,No
2021/01/28,18:10,0.179,0.161,0.257,0.243,0.239,0.141,0.085,northwest,6.7,Yes
2021/01/28,18:20,0.179,0.161,0.257,0.243,0.239,0.141,0.086,northwest,6.8,Yes
2021/01/28,18:30,0.180,0.161,0.256,0.244,0.240,0.143,0.088,northwest,6.8,Yes
2021/01/28,18:40,0.182,0.162,0.258,0.243,0.240,0.142,0.087,northwest,6.4,Yes
2021/01/28,18:50,0.181,0.164,0.260,0.245,0.240,0.144,0.089,northwest,7.0,Yes
2021/01/28,19:00,0.184,0.165,0.259,0.246,0.242,0.145,0.090,northwest,7.3,Yes
2021/01/28,19:10,0.184,0.165,0.260,0.245,0.243,0.146,0.090,northwest,7.6,Yes
2021/01/28,19:20,0.184,0.165,0.260,0.246,0.242,0.147,0.091,northwest,8.1,Yes
2021/01/28,19:30,0.182,0.165,0.260,0.246,0.242,0.145,0.091,northwest,8.5,Yes
2021/01/28,19:40,0.183,0.165,0.259,0.245,0.240,0.145,0.090,northwest,8.2,Yes
2021/01/28,19:50,0.183,0.164,0.260,0.245,0.242,0.144,0.090,northwest,7.9,Yes
2021/01/28,20:00,0.182,0.164,0.260,0.243,0.242,0.145,0.090,northwest,7.9,Yes
2021/01/28,20:10,0.183,0.164,0.258,0.245,0.241,0.144,0.090,northwest,7.9,Yes
2021/01/28,20:20,0.182,0.163,0.257,0.244,0.241,0.145,0.089,northwest,7.3,Yes
2021/01/28,20:30,0.182,0.164,0.256,0.243,0.239,0.143,0.088,northwest,7.5,Yes
2021/01/28,20:40,0.180,0.162,0.256,0.242,0.240,0.143,0.087,northwest,7.9,No
2021/01/28,20:50,0.181,0.162,0.255,0.243,0.239,0.143,0.087,northwest,8.1,Yes
2021/01/28,21:00,0.180,0.162,0.256,0.242,0.240,0.142,0.088,northwest,8.1,Yes
2021/01/28,21:10,0.180,0.162,0.257,0.242,0.238,0.143,0.086,northwest,7.7,Yes
2021/01/28,21:20,0.179,0.161,0.257,0.242,0.239,0.143,0.087,northwest,7.3,Yes
2021/01/28,21:30,0.180,0.161,0.256,0.242,0.239,0.142,0.086,northwest,7.4,Yes
2021/01/28,21:40,0.180,0.161,0.255,0.241,0.237,0.141,0.086,northwest,7.1,Yes
2021/01/28,21:50,0.179,0.161,0.255,0.241,0.238,0.142,0.086,northwest,7.3,No
2021/01/28,22:00,0.179,0.160,0.254,0.242,0.239,0.141,0.086,northwest,7.6,Yes
2021/01/28,22:10,0.178,0.160,0.255,0.241,0.238,0.141,0.086,northwest,7.6,Yes
2021/01/28,22:20,0.178,0.160,0.255,0.240,0.237,0.142,0.086,northwest,7.9,Yes
2021/01/28,22:30,0.178,0.159,0.255,0.240,0.237,0.141,0.087,northwest,8.4,Yes
2021/01/28,22:40,0.179,0.163,0.256,0.242,0.240,0.142,0.087,northwest,9.2,Yes
2021/01/28,22:50,0.181,0.161,0.255,0.242,0.239,0.143,0.087,northwest,8.5,Yes
2021/01/28,23:00,0.181,0.163,0.256,0.243,0.240,0.143,0.089,northwest,9.2,Yes
2021/01/28,23:10,0.181,0.163,0.256,0.242,0.240,0.143,0.088,northwest,8.8,Yes
2021/01/28,23:20,0.181,0.162,0.256,0.242,0.239,0.144,0.089,northwest,7.7,Yes
2021/01/28,23:30,0.181,0.162,0.256,0.243,0.239,0.143,0.088,northwest,7.6,Yes
2021/01/28,23:40,0.181,0.163,0.255,0.241,0.240,0.144,0.088,northwest,7.5,Yes
2021/01/28,23:50,0.181,0.163,0.256,0.242,0.238,0.143,0.088,northwest,7.3,Yes
